Zurück zum Katalog

CZ-6A DEB

AktivPO
NORAD 54487·DEBRIS·🇨🇳 China

Gestartet Nov 11, 2022 von Taiyuan Satellite Launch Center

Loading…

Nächste Überflüge (nächste 24 Stunden)

TLE

AktuellSource: Space-Track

Epoche: Sep 14, 2026, 05:16 UTC

1 54487U 22151HP  26257.22004235  .00025884  00000-0  21089-2 0  9998
2 54487  98.6500 347.0146 0038057 314.1935  45.6160 14.98902888202285

Verfolge CZ-6A DEB in Echtzeit mit AllMySat

Download on the App Store